Hourly Weather Malanville

Today, 8 August, Saturday

Time Temperature Precipitation Wind Pressure Humidity
00:00 +24°C° 0 mm 2 mps 746 mmHg 95%
01:00 +24°C° 0 mm 2 mps 746 mmHg 95%
02:00 +24°C° 0 mm 2 mps 746 mmHg 94%
03:00 +24°C° 0 mm 2 mps 745 mmHg 94%
04:00 +24°C° 0 mm 2 mps 746 mmHg 93%
05:00 +24°C° 0 mm 2 mps 746 mmHg 93%
06:00 +24°C° 0 mm 3 mps 746 mmHg 93%
07:00 +25°C° 0 mm 4 mps 747 mmHg 87%
08:00 +27°C° 0 mm 4 mps 747 mmHg 82%
09:00 +28°C° 0 mm 5 mps 747 mmHg 76%
10:00 +29°C° 0 mm 4 mps 747 mmHg 70%
11:00 +30°C° 0 mm 4 mps 746 mmHg 65%
12:00 +33°C° 0 mm 4 mps 746 mmHg 59%
13:00 +33°C° 0.2 mm 3 mps 745 mmHg 59%
14:00 +33°C° 0.2 mm 3 mps 745 mmHg 59%
15:00 +33°C° 0.2 mm 3 mps 744 mmHg 60%
16:00 +31°C° 0.9 mm 3 mps 744 mmHg 66%
17:00 +30°C° 0.9 mm 2 mps 744 mmHg 73%
18:00 +28°C° 0.9 mm 2 mps 744 mmHg 80%
19:00 +28°C° 0 mm 2 mps 745 mmHg 81%
20:00 +27°C° 0 mm 2 mps 745 mmHg 82%
21:00 +27°C° 0 mm 2 mps 745 mmHg 83%
22:00 +26°C° 0 mm 2 mps 745 mmHg 85%
23:00 +26°C° 0 mm 2 mps 745 mmHg 86%

Tomorrow, 9 August, Sunday

Time Temperature Precipitation Wind Pressure Humidity
00:00 +26°C° 0 mm 2 mps 745 mmHg 88%
01:00 +25°C° 0 mm 2 mps 745 mmHg 89%
02:00 +25°C° 0 mm 2 mps 745 mmHg 90%
03:00 +25°C° 0 mm 2 mps 745 mmHg 91%
04:00 +25°C° 0 mm 2 mps 745 mmHg 91%
05:00 +24°C° 0 mm 3 mps 745 mmHg 91%
06:00 +24°C° 0 mm 3 mps 745 mmHg 92%
07:00 +26°C° 0 mm 3 mps 746 mmHg 86%
08:00 +27°C° 0 mm 4 mps 746 mmHg 79%
09:00 +29°C° 0 mm 5 mps 746 mmHg 73%
10:00 +30°C° 0.6 mm 5 mps 746 mmHg 71%
11:00 +32°C° 0.6 mm 5 mps 745 mmHg 68%
12:00 +33°C° 0.6 mm 5 mps 745 mmHg 65%
13:00 +33°C° 0.6 mm 5 mps 744 mmHg 64%
14:00 +33°C° 0.6 mm 5 mps 743 mmHg 62%
15:00 +34°C° 0.6 mm 5 mps 742 mmHg 60%
16:00 +32°C° 0.4 mm 4 mps 742 mmHg 66%
17:00 +30°C° 0.4 mm 3 mps 742 mmHg 71%
18:00 +29°C° 0.4 mm 3 mps 742 mmHg 77%
19:00 +28°C° 0.8 mm 3 mps 743 mmHg 79%
20:00 +28°C° 0.8 mm 3 mps 743 mmHg 80%
21:00 +27°C° 0.8 mm 3 mps 744 mmHg 82%
22:00 +27°C° 0.6 mm 3 mps 744 mmHg 83%
23:00 +27°C° 0.6 mm 3 mps 743 mmHg 85%

Day after tomorrow, 10 August, Monday

Time Temperature Precipitation Wind Pressure Humidity
00:00 +26°C° 0.6 mm 3 mps 743 mmHg 87%
01:00 +26°C° 0 mm 3 mps 743 mmHg 88%
02:00 +26°C° 0 mm 3 mps 742 mmHg 89%
03:00 +25°C° 0 mm 3 mps 742 mmHg 90%
04:00 +25°C° 0.3 mm 3 mps 742 mmHg 90%
05:00 +25°C° 0.3 mm 3 mps 742 mmHg 90%
06:00 +25°C° 0.3 mm 3 mps 743 mmHg 90%
07:00 +26°C° 0.1 mm 3 mps 743 mmHg 84%
08:00 +28°C° 0.1 mm 4 mps 744 mmHg 78%
09:00 +29°C° 0.1 mm 5 mps 744 mmHg 72%
10:00 +29°C° 1 mm 4 mps 744 mmHg 72%
11:00 +30°C° 1 mm 3 mps 744 mmHg 72%
12:00 +30°C° 1 mm 3 mps 743 mmHg 72%
13:00 +29°C° 1.8 mm 3 mps 742 mmHg 75%
14:00 +29°C° 1.8 mm 3 mps 742 mmHg 78%
15:00 +29°C° 1.8 mm 2 mps 741 mmHg 81%
16:00 +28°C° 0.2 mm 2 mps 741 mmHg 83%
17:00 +28°C° 0.2 mm 2 mps 741 mmHg 86%
18:00 +27°C° 0.2 mm 2 mps 741 mmHg 89%
19:00 +27°C° 0.1 mm 2 mps 742 mmHg 89%
20:00 +27°C° 0.1 mm 2 mps 742 mmHg 90%
21:00 +26°C° 0.1 mm 2 mps 743 mmHg 90%
22:00 +26°C° 0.1 mm 3 mps 743 mmHg 90%
23:00 +26°C° 0.1 mm 3 mps 743 mmHg 90%

11 August, Tuesday

Time Temperature Precipitation Wind Pressure Humidity
00:00 +26°C° 0.1 mm 3 mps 743 mmHg 91%
01:00 +26°C° 0.2 mm 3 mps 743 mmHg 91%
02:00 +25°C° 0.2 mm 3 mps 743 mmHg 92%
03:00 +25°C° 0.2 mm 3 mps 743 mmHg 92%
04:00 +25°C° 0.3 mm 3 mps 743 mmHg 92%
05:00 +24°C° 0.3 mm 3 mps 744 mmHg 92%
06:00 +24°C° 0.3 mm 3 mps 744 mmHg 92%
07:00 +24°C° 0.1 mm 3 mps 744 mmHg 91%
08:00 +23°C° 0.1 mm 4 mps 745 mmHg 90%
09:00 +23°C° 0.1 mm 5 mps 746 mmHg 88%
10:00 +23°C° 0.1 mm 5 mps 745 mmHg 88%
11:00 +23°C° 0.1 mm 4 mps 745 mmHg 87%
12:00 +23°C° 0.1 mm 4 mps 745 mmHg 87%
13:00 +25°C° 0.1 mm 5 mps 745 mmHg 84%
14:00 +26°C° 0.1 mm 5 mps 744 mmHg 81%
15:00 +27°C° 0.1 mm 5 mps 743 mmHg 78%
16:00 +26°C° 0 mm 4 mps 744 mmHg 81%
17:00 +26°C° 0 mm 3 mps 744 mmHg 84%
18:00 +25°C° 0 mm 2 mps 744 mmHg 86%
19:00 +25°C° 0 mm 2 mps 744 mmHg 89%
20:00 +24°C° 0 mm 1 mps 745 mmHg 91%
21:00 +24°C° 0 mm 1 mps 745 mmHg 93%
22:00 +24°C° 0 mm 1 mps 745 mmHg 93%
23:00 +24°C° 0 mm 1 mps 745 mmHg 93%

12 August, Wednesday

Time Temperature Precipitation Wind Pressure Humidity
00:00 +24°C° 0 mm 1 mps 745 mmHg 93%
01:00 +24°C° 0 mm 1 mps 745 mmHg 93%
02:00 +22°C° 0 mm 0 mps 745 mmHg 94%
03:00 +22°C° 0 mm 0 mps 745 mmHg 94%
04:00 +22°C° 0.3 mm 0 mps 745 mmHg 94%
05:00 +22°C° 0.3 mm 0 mps 745 mmHg 93%
06:00 +22°C° 0.3 mm 0 mps 746 mmHg 92%
07:00 +25°C° 0.1 mm 1 mps 746 mmHg 89%
08:00 +26°C° 0.1 mm 1 mps 746 mmHg 86%
09:00 +26°C° 0.1 mm 2 mps 747 mmHg 83%
10:00 +28°C° 0.1 mm 2 mps 746 mmHg 77%
11:00 +29°C° 0.1 mm 2 mps 746 mmHg 71%
12:00 +31°C° 0.1 mm 2 mps 745 mmHg 65%
13:00 +31°C° 0.1 mm 2 mps 745 mmHg 64%
14:00 +32°C° 0.1 mm 2 mps 744 mmHg 62%
15:00 +32°C° 0.1 mm 2 mps 743 mmHg 61%
16:00 +31°C° 0.2 mm 2 mps 743 mmHg 66%
17:00 +30°C° 0.2 mm 2 mps 743 mmHg 72%
18:00 +29°C° 0.2 mm 2 mps 743 mmHg 77%
19:00 +28°C° 0.1 mm 2 mps 744 mmHg 79%
20:00 +27°C° 0.1 mm 2 mps 745 mmHg 81%
21:00 +27°C° 0.1 mm 2 mps 745 mmHg 83%
22:00 +27°C° 0.4 mm 2 mps 745 mmHg 84%
23:00 +26°C° 0.4 mm 2 mps 745 mmHg 86%

13 August, Thursday

Time Temperature Precipitation Wind Pressure Humidity
00:00 +26°C° 0.4 mm 2 mps 744 mmHg 87%
01:00 +26°C° 0.3 mm 2 mps 744 mmHg 88%
02:00 +26°C° 0.3 mm 2 mps 744 mmHg 89%
03:00 +25°C° 0.3 mm 2 mps 744 mmHg 90%
04:00 +25°C° 0.3 mm 2 mps 744 mmHg 90%
05:00 +25°C° 0.3 mm 2 mps 744 mmHg 91%
06:00 +25°C° 0.3 mm 2 mps 744 mmHg 91%
07:00 +26°C° 0.1 mm 3 mps 744 mmHg 86%
08:00 +27°C° 0.1 mm 3 mps 745 mmHg 82%
09:00 +28°C° 0.1 mm 3 mps 745 mmHg 77%
10:00 +30°C° 0.4 mm 3 mps 744 mmHg 71%
11:00 +31°C° 0.4 mm 3 mps 744 mmHg 66%
12:00 +34°C° 0.4 mm 3 mps 744 mmHg 60%
13:00 +34°C° 0.6 mm 3 mps 743 mmHg 62%
14:00 +33°C° 0.6 mm 3 mps 743 mmHg 63%
15:00 +32°C° 0.6 mm 2 mps 742 mmHg 64%
16:00 +31°C° 0.5 mm 2 mps 742 mmHg 69%
17:00 +30°C° 0.5 mm 2 mps 742 mmHg 75%
18:00 +29°C° 0.5 mm 2 mps 742 mmHg 80%
19:00 +28°C° 0 mm 2 mps 742 mmHg 81%
20:00 +28°C° 0 mm 2 mps 743 mmHg 83%
21:00 +27°C° 0 mm 2 mps 743 mmHg 84%
22:00 +27°C° 0 mm 2 mps 743 mmHg 85%
23:00 +27°C° 0 mm 3 mps 743 mmHg 86%
Show more